This is the latest recevied weather packets stored in our database for station/object KA1BMF-13. If no packets are shown the sender has not sent any weather packets the latest 10 day(s).
| Time | Temp. | Humidity | Pressure | Rain* | Wind** | Luminosity | Snow |
|---|---|---|---|---|---|---|---|
| 1788021919 | 23.33° C | 44% | 1022.8 hPa | 0 mm | - | 862 W/m² | - |
| 1788021316 | 23.33° C | 45% | 1022.9 hPa | 0 mm | - | 857 W/m² | - |
| 1788020716 | 22.78° C | 45% | 1022.9 hPa | 0 mm | - | 854 W/m² | - |
| 1788020119 | 22.78° C | 45% | 1023 hPa | 0 mm | - | 851 W/m² | - |
| 1788019519 | 22.78° C | 49% | 1023 hPa | 0 mm | - | 839 W/m² | - |
| 1788018919 | 22.78° C | 48% | 1023 hPa | 0 mm | - | 831 W/m² | - |
| 1788018317 | 22.22° C | 50% | 1022.9 hPa | 0 mm | - | 819 W/m² | - |
| 1788017717 | 22.22° C | 51% | 1023 hPa | 0 mm | - | 804 W/m² | - |
| 1788017120 | 22.22° C | 51% | 1022.9 hPa | 0 mm | - | 788 W/m² | - |
| 1788016520 | 21.67° C | 52% | 1023 hPa | 0 mm | - | 769 W/m² | - |
| 1788015917 | 21.67° C | 54% | 1023.1 hPa | 0 mm | - | 750 W/m² | - |
| 1788015318 | 21.67° C | 54% | 1023.2 hPa | 0 mm | - | 730 W/m² | - |
| 1788014718 | 21.11° C | 58% | 1023.3 hPa | 0 mm | - | 706 W/m² | - |
| 1788014118 | 21.11° C | 57% | 1023.2 hPa | 0 mm | - | 683 W/m² | - |
| 1788013518 | 20.56° C | 56% | 1023.2 hPa | 0 mm | - | 657 W/m² | - |
| 1788012918 | 20.56° C | 59% | 1023.1 hPa | 0 mm | - | 631 W/m² | - |
| 1788012318 | 20° C | 60% | 1023 hPa | 0 mm | - | 602 W/m² | - |
| 1788011719 | 20° C | 61% | 1022.9 hPa | 0 mm | - | 572 W/m² | - |
| 1788011118 | 19.44° C | 62% | 1022.8 hPa | 0 mm | - | 542 W/m² | - |
| 1788010519 | 19.44° C | 65% | 1022.8 hPa | 0 mm | - | 512 W/m² | - |
| 1788009919 | 18.89° C | 66% | 1022.8 hPa | 0 mm | - | 480 W/m² | - |
| 1788009319 | 18.33° C | 71% | 1022.8 hPa | 0 mm | - | 447 W/m² | - |
| 1788008725 | 18.33° C | 73% | 1022.8 hPa | 0 mm | - | 66 W/m² | - |
| 1788008117 | 17.78° C | 73% | 1022.7 hPa | 0 mm | - | 42 W/m² | - |
| 1788007518 | 17.78° C | 76% | 1022.7 hPa | 0 mm | - | 41 W/m² | - |
* Rain latest hour (hover to see other rain measurements)
** Current wind speed in m/s (hover to see current wind gust speed)